This is the latest recevied weather packets stored in our database for station/object KG4IFE-13. If no packets are shown the sender has not sent any weather packets the latest 10 day(s).
| Time | Temp. | Humidity | Pressure | Rain* | Wind** | Luminosity | Snow |
|---|---|---|---|---|---|---|---|
| 1778059489 | 17.78° C | 68% | 1011.1 hPa | - | - | - | - |
| 1778058585 | 18.33° C | 66% | 1011.2 hPa | - | - | - | - |
| 1778057685 | 18.33° C | 65% | 1011.2 hPa | - | - | - | - |
| 1778057083 | 18.89° C | 64% | 1011.1 hPa | - | - | - | - |
| 1778056178 | 18.89° C | 64% | 1011.4 hPa | - | - | - | - |
| 1778054092 | 18.89° C | 63% | 1011.3 hPa | - | - | - | - |
| 1778051663 | 18.33° C | 61% | 1011.7 hPa | - | - | - | - |
| 1778050760 | 18.33° C | 60% | 1011.7 hPa | - | - | - | - |
| 1778049858 | 18.89° C | 59% | 1011.9 hPa | - | - | - | - |
| 1778049275 | 18.89° C | 58% | 1012.1 hPa | - | - | - | - |
| 1778046566 | 17.78° C | 58% | 1012.6 hPa | - | - | - | - |
| 1778045342 | 18.89° C | 55% | 1012.3 hPa | - | - | - | - |
| 1778043234 | 20° C | 52% | 1012.4 hPa | - | - | - | - |
| 1778039041 | 20.56° C | 51% | 1012.6 hPa | - | - | - | - |
| 1778038419 | 20.56° C | 51% | 1012.4 hPa | - | - | - | - |
| 1778038118 | 20.56° C | 51% | 1012.4 hPa | - | - | - | - |
| 1778037236 | 20.56° C | 50% | 1012.9 hPa | - | - | - | - |
| 1778036914 | 20.56° C | 50% | 1012.9 hPa | - | - | - | - |
| 1778035710 | 21.11° C | 49% | 1012.9 hPa | - | - | - | - |
| 1778029110 | 21.67° C | 47% | 1013 hPa | - | - | - | - |
| 1778026723 | 22.22° C | 45% | 1012.8 hPa | - | - | - | - |
| 1778026078 | 22.22° C | 45% | 1012.8 hPa | - | - | - | - |
| 1778023971 | 22.78° C | 42% | 1012.4 hPa | - | - | - | - |
| 1778018854 | 24.44° C | 41% | 1012.7 hPa | - | - | - | - |
| 1778017048 | 24.44° C | 41% | 1012.7 hPa | - | - | - | - |
* Rain since midnight (hover to see other rain measurements)
** Current wind speed in m/s (hover to see current wind gust speed)